BINAR-4

Last updated on Wed Sep 11 2024 00:02:05 GMT+0000 (Coordinated Universal Time)

1 60952U 98067WS 24254.49193907 .00177181 00000+0 26971-2 0 9992 2 60952 51.6364 252.5882 0012005 349.3475 10.7259 15.53306318 1880
UTC large
Height (km)
Speed (km/s)
/
Latitude / Longitude
Inclination (degrees)
Orbital Period (minutes)
Azimuth
Elevation
Range (km)
Doppler Factor

Next 0 passes for location: London (51.5072 / 0.1276)

Sorry there are no passes over London.